Pierre, SD

7:22 AM CST on November 18, 2019 (GMT -0600)
Pierre Regional

Weather History for KPIR - June, 2019

Change the Weather History Date:

Friday, June 7, 2019

  Actual Average Record
Temperature  
Mean Temperature 78 °F 65 °F  
Max Temperature 91 °F 77 °F 98 °F (1959)
Min Temperature 64 °F 53 °F 41 °F (1990)
Degree Days  
Heating Degree Days 0    
Month to date heating degree days 12  
Since 1 June heating degree days 12  
Since 1 July heating degree days 8138  
Cooling Degree Days 13    
Month to date cooling degree days 39  
Year to date cooling degree days 50  
Since 1 June cooling degree days 39  
Growing Degree Days 28 (Base 50)    
Moisture  
Dew Point 61 °F    
Average Humidity 62    
Maximum Humidity 87    
Minimum Humidity 36    
Precipitation  
Precipitation 0.00 in 0.14 in 3.11 in (1968)
Month to date precipitation T 0.93  
Year to date precipitation 13.85 8.13  
Snow  
Snow 0.00 in 0.00 in 0.00 in ()
Month to date snowfall 0.0 0.0  
Since 1 July snowfall 66.3 31.9  
Snow Depth 0.00 in    
Sea Level Pressure  
Sea Level Pressure 29.66 in    
Wind  
Wind Speed 15 mph (SSE)    
Max Wind Speed 30 mph    
Max Gust Speed 38 mph    
Visibility 10 miles    
Events      
T = Trace of Precipitation, MM = Missing Value Source: NWS Daily Summary

Daily Weather History Graph

Daily Weather History Graph

Search for Another Location

Airport or City:

Astronomy

Jun. 07, 2019 Rise Set
Actual Time 5:57 AM CDT 9:22 PM CDT
Civil Twilight 5:21 AM CDT 9:59 PM CDT
Nautical Twilight 4:33 AM CDT 10:46 PM CDT
Astronomical Twilight 3:33 AM CDT 11:47 PM CDT
Moon 10:19 AM CDT (6/7) 12:39 AM CDT (6/7)
Length of Visible Light 16h 37m
Length of Day
15h 25m
Waxing Crescent, 22% of the Moon is Illuminated
Jun 7
Waxing Crescent
Jun 10
First Quarter
Jun 17
Full
Jun 25
Last Quarter
Jul 2
New

Hourly Weather History & Observations

Time (CDT) Temp. Heat Index Dew Point Humidity Pressure Visibility Wind Dir Wind Speed Gust Speed Precip Events Conditions
12:53 AM 69.1 °F - 59.0 °F 70% 29.74 in 10.0 mi ESE 11.5 mph 18.4 mph N/A   Clear
1:53 AM 68.0 °F - 59.0 °F 73% 29.74 in 10.0 mi SE 8.1 mph - N/A   Clear
2:53 AM 66.9 °F - 59.0 °F 76% 29.73 in 10.0 mi SSE 10.4 mph - N/A   Clear
3:53 AM 70.0 °F - 59.0 °F 68% 29.71 in 10.0 mi South 16.1 mph 25.3 mph N/A   Clear
4:53 AM 66.0 °F - 59.0 °F 78% 29.71 in 10.0 mi SE 6.9 mph - N/A   Clear
5:53 AM 66.0 °F - 59.0 °F 78% 29.70 in 10.0 mi ESE 8.1 mph - N/A   Clear
6:53 AM 64.9 °F - 60.1 °F 84% 29.70 in 10.0 mi ESE 10.4 mph - N/A   Clear
7:53 AM 68.0 °F - 61.0 °F 78% 29.70 in 10.0 mi ESE 9.2 mph - N/A   Clear
8:53 AM 72.0 °F - 62.1 °F 71% 29.71 in 10.0 mi SSE 6.9 mph - N/A   Clear
9:53 AM 80.1 °F 81.5 °F 63.0 °F 56% 29.68 in 10.0 mi South 17.3 mph 27.6 mph N/A   Clear
10:53 AM 82.0 °F 83.1 °F 63.0 °F 52% 29.68 in 10.0 mi South 18.4 mph 31.1 mph N/A   Clear
11:53 AM 84.9 °F 85.4 °F 62.1 °F 46% 29.66 in 10.0 mi South 25.3 mph 33.4 mph N/A   Clear
12:53 PM 87.1 °F 87.5 °F 62.1 °F 43% 29.65 in 10.0 mi South 23.0 mph 38.0 mph N/A   Clear
1:53 PM 89.1 °F 89.0 °F 61.0 °F 39% 29.64 in 10.0 mi South 20.7 mph 34.5 mph N/A   Clear
2:53 PM 90.0 °F 90.0 °F 61.0 °F 38% 29.62 in 10.0 mi South 26.5 mph 35.7 mph N/A   Clear
3:53 PM 91.0 °F 90.5 °F 60.1 °F 35% 29.60 in 10.0 mi South 23.0 mph 34.5 mph N/A   Clear
4:53 PM 89.1 °F 88.2 °F 59.0 °F 36% 29.60 in 10.0 mi South 23.0 mph 33.4 mph N/A   Clear
5:53 PM 89.1 °F 89.0 °F 61.0 °F 39% 29.59 in 10.0 mi South 19.6 mph 33.4 mph N/A   Clear
6:53 PM 87.1 °F 87.8 °F 63.0 °F 44% 29.59 in 10.0 mi SSE 19.6 mph 29.9 mph N/A   Clear
7:53 PM 82.9 °F 83.3 °F 61.0 °F 47% 29.58 in 10.0 mi SSE 16.1 mph 26.5 mph N/A   Clear
8:53 PM 80.1 °F 81.2 °F 62.1 °F 54% 29.60 in 10.0 mi SE 15.0 mph - N/A   Clear
9:53 PM 77.0 °F - 61.0 °F 58% 29.60 in 10.0 mi SE 13.8 mph - N/A   Clear
10:53 PM 73.0 °F - 62.1 °F 68% 29.63 in 10.0 mi ESE 6.9 mph - N/A   Clear
11:53 PM 75.0 °F - 59.0 °F 57% 29.62 in 10.0 mi SE 12.7 mph - N/A   Clear